[[{"header":{"parameterUnit":"m.s-1","parameterCategory":1,"la1":30.2991,"la2":30.254,"lo1":-89.0895,"lo2":-89.0444,"dy":0.0017,"dx":0.0017,"nx":28,"ny":28,"refTime":"2024-03-12T03:00:00:Z","depth":0,"parameterNumber":2,"parameterNumberName":"U-component_of_WINDS"},"data":[0,0,0,0,0,0,0,0,0,0,0,0,0,0,0,0,0,0,0,0,0,0,0,0,0,0,0,0,0,0,0,0,0,0,0,0,0,0,0,0,0,0,0,0,0,0,0,0,0,0,0,0,0,0,0,0,0,0,-0.5328,-0.5328,0,-0.53,-0.53,-0.5299,-0.5302,-0.5302,-0.5303,-0.5303,-0.5276,-0.5275,-0.5274,0,0,0,0,0,0,0,0,0,0,0,0,0,-0.5388,-0.5386,-0.5329,-0.5328,-0.5328,-0.53,-0.53,-0.5299,-0.5302,-0.5302,-0.5303,-0.5303,-0.5276,-0.5275,-0.5274,0,0,0,0,0,0,0,0,0,0,0,0,0,-0.5361,-0.5386,-0.5329,-0.5326,-0.5325,-0.53,-0.5299,-0.5299,-0.5301,-0.5302,-0.5303,-0.5303,-0.5277,-0.5275,-0.5274,-0.525,0,0,-0.5268,-0.5268,0,0,0,0,0,0,0,0,-0.5362,-0.5359,-0.5326,-0.5326,-0.5325,-0.5305,-0.531,-0.5283,-0.5301,-0.5311,-0.5303,-0.5304,-0.5285,-0.5283,-0.5276,-0.5249,-0.5248,-0.5268,-0.5267,-0.5267,-0.5266,0,0,0,0,0,0,0,-0.5364,-0.536,-0.5317,-0.5326,-0.5325,-0.5326,-0.5323,-0.5305,-0.5295,-0.531,-0.531,-0.5306,-0.5285,-0.5278,-0.5276,-0.5248,-0.5268,-0.5267,-0.5266,-0.5265,-0.52,-0.5199,0,0,0,0,0,0,-0.5366,-0.5361,-0.5318,-0.5316,-0.5346,-0.5325,-0.5321,-0.5311,-0.5295,-0.5293,-0.5306,-0.5307,-0.528,-0.5278,-0.5275,-0.5246,-0.5267,-0.5265,-0.5264,-0.52,-0.52,-0.5199,0,0,0,0,0,0,-0.5368,-0.5362,-0.5319,-0.5339,-0.5333,-0.5323,-0.5311,-0.531,-0.5303,-0.5292,-0.529,-0.53,-0.5281,-0.5277,-0.5256,-0.5245,-0.5264,-0.5263,-0.5201,-0.52,-0.5199,-0.5189,0,0,0,0,0,0,-0.5369,-0.5363,-0.5354,-0.5339,-0.5332,-0.5301,-0.5311,-0.5309,-0.5299,-0.53,-0.5286,-0.5285,-0.5281,-0.5259,-0.5254,-0.5243,-0.5261,-0.5202,-0.5201,-0.52,-0.5191,-0.5188,-0.5186,0,0,0,0,0,-0.5371,-0.5353,-0.5353,-0.5348,-0.532,-0.53,-0.5297,-0.5292,-0.5299,-0.5289,-0.5282,-0.5285,-0.5247,-0.5256,-0.5252,-0.524,-0.5203,-0.5201,-0.52,-0.5192,-0.5189,-0.5186,0,0,0,0,0,0,-0.5368,-0.5351,-0.5351,-0.5326,-0.5314,-0.53,-0.5289,-0.5289,-0.5276,-0.5277,-0.5273,-0.527,-0.5249,-0.5242,-0.5253,-0.5217,-0.5226,-0.5223,-0.5222,-0.5219,-0.5216,-0.5218,-0.526,0,0,0,0,0,-0.5364,-0.5348,-0.5334,-0.5314,-0.5308,-0.5299,-0.529,-0.5288,-0.5276,-0.5271,-0.5262,-0.5251,-0.5237,-0.5227,-0.5213,-0.519,-0.5187,-0.5179,-0.5177,-0.5175,-0.5173,-0.516,-0.5157,-0.5193,-0.5193,-0.5193,0,0,-0.5356,-0.5345,-0.5335,-0.5313,-0.5303,-0.5288,-0.5295,-0.5278,-0.5267,-0.5269,-0.5248,-0.5241,-0.5229,-0.5206,-0.5196,-0.52,-0.5162,-0.5173,-0.5172,-0.5171,-0.5158,-0.5155,-0.5151,-0.5192,-0.5192,-0.5193,0,0,-0.5333,-0.5323,-0.5305,-0.5295,-0.528,-0.5274,-0.527,-0.5256,-0.5251,-0.523,-0.5231,-0.5218,-0.5193,-0.5184,-0.5176,-0.5149,-0.5151,-0.5145,-0.5133,-0.512,-0.5117,-0.5115,-0.5105,-0.5102,-0.5143,-0.5143,-0.5143,0,-0.5326,-0.5301,-0.5296,-0.5279,-0.5269,-0.5269,-0.5251,-0.5242,-0.5223,-0.5217,-0.5222,-0.5191,-0.5182,-0.5157,-0.5151,-0.5144,-0.514,-0.5147,-0.5118,-0.5115,-0.5113,-0.5104,-0.51,-0.5142,-0.5142,-0.5142,-0.5142,0,-0.5293,-0.5276,-0.5263,-0.5244,-0.5233,-0.5216,-0.5208,-0.5198,-0.5196,-0.519,-0.5169,-0.5159,-0.5142,-0.5136,-0.5135,-0.5111,-0.5115,-0.5119,-0.5128,-0.5109,-0.51,-0.5097,-0.5141,-0.5141,-0.5142,-0.5142,0,0,-0.5268,-0.5245,-0.5241,-0.5232,-0.5215,-0.5203,-0.5185,-0.5169,-0.516,-0.5147,-0.5133,-0.5111,-0.5115,-0.5106,-0.5104,-0.5092,-0.5072,-0.5098,-0.5098,-0.5093,-0.5045,-0.5042,-0.5038,-0.5073,-0.5072,-0.5072,-0.5046,0,-0.5244,-0.5212,-0.5206,-0.5179,-0.5163,-0.5163,-0.5147,-0.5136,-0.513,-0.5116,-0.511,-0.5095,-0.51,-0.5095,-0.5084,-0.5077,-0.5062,-0.5079,-0.506,-0.5059,-0.5063,-0.5034,-0.5031,-0.5008,-0.5043,-0.5042,-0.5042,0,-0.5212,-0.5197,-0.5168,-0.5152,-0.5146,-0.5132,-0.5116,-0.5103,-0.509,-0.5086,-0.5076,-0.5075,-0.5057,-0.5067,-0.5043,-0.5054,-0.5046,-0.5041,-0.504,-0.5039,-0.505,-0.5032,-0.5,-0.4997,-0.5037,-0.5037,-0.5038,0,-0.5197,-0.517,-0.5148,-0.5141,-0.5123,-0.5113,-0.5105,-0.5093,-0.5083,-0.5069,-0.5063,-0.5048,-0.504,-0.5028,-0.5023,-0.5031,-0.4999,-0.5009,-0.4996,-0.4996,-0.499,-0.4991,-0.4957,-0.4985,-0.4985,-0.4985,-0.4985,0,-0.5171,-0.5153,-0.5141,-0.5128,-0.5108,-0.5102,-0.5083,-0.5075,-0.5064,-0.505,-0.5049,-0.5036,-0.503,-0.5016,-0.5012,-0.4993,-0.4989,-0.4986,-0.4985,-0.4986,-0.4987,-0.4981,-0.4983,-0.4984,-0.4984,-0.4984,-0.4984,0,-0.5151,-0.5142,-0.5119,-0.5103,-0.5099,-0.5085,-0.5071,-0.5059,-0.5053,-0.5035,-0.503,-0.5021,-0.5004,-0.4998,-0.4978,-0.4976,-0.4954,-0.4954,-0.4958,-0.4958,-0.4945,-0.4947,-0.4907,-0.4902,-0.4933,-0.4933,-0.4932,0,-0.5135,-0.5121,-0.5103,-0.5093,-0.5084,-0.5069,-0.5058,-0.5052,-0.5041,-0.5025,-0.5015,-0.4998,-0.4984,-0.4959,-0.495,-0.4935,-0.4935,-0.4923,-0.4933,-0.4935,-0.4935,-0.4936,-0.4935,-0.4921,-0.492,-0.492,-0.492,0,-0.5108,-0.5104,-0.5088,-0.5071,-0.5059,-0.5045,-0.5032,-0.5024,-0.5016,-0.5004,-0.4987,-0.4976,-0.4956,-0.4939,-0.4924,-0.4916,-0.4917,-0.4916,-0.4913,-0.4914,-0.4917,-0.4915,-0.4952,-0.4918,-0.4918,-0.4918,-0.4918,-0.4918,-0.5089,-0.5077,-0.5062,-0.5045,-0.5034,-0.5022,-0.5009,-0.5,-0.4986,-0.4968,-0.4965,-0.4946,-0.4934,-0.4913,-0.4905,-0.4891,-0.4894,-0.4889,-0.4887,-0.4886,-0.4885,-0.4918,-0.4888,-0.4888,-0.4888,-0.4888,-0.4888,0,-0.5062,-0.5052,-0.5036,-0.5018,-0.5004,-0.5004,-0.499,-0.4979,-0.4962,-0.495,-0.4936,-0.4916,-0.49,-0.489,-0.4875,-0.4865,-0.4865,-0.4861,-0.4862,-0.4861,-0.4883,-0.4888,-0.4862,-0.4862,-0.4862,-0.4862,-0.4862,-0.4862,-0.5046,-0.5025,-0.5019,-0.4993,-0.4983,-0.4964,-0.4956,-0.4945,-0.4935,-0.4912,-0.4898,-0.4892,-0.488,-0.4863,-0.4849,-0.4846,-0.4841,-0.4837,-0.4835,-0.4856,-0.4859,-0.4862,-0.4866,-0.4836,-0.4836,-0.4813,-0.4813,-0.4813]},{"header":{"parameterUnit":"m.s-1","parameterCategory":1,"la1":30.2991,"la2":30.254,"lo1":-89.0895,"lo2":-89.0444,"dy":0.0017,"dx":0.0017,"nx":28,"ny":28,"refTime":"2024-03-12T03:00:00:Z","depth":0,"parameterNumber":3,"parameterNumberName":"V-component_of_WINDS"},"data":[0,0,0,0,0,0,0,0,0,0,0,0,0,0,0,0,0,0,0,0,0,0,0,0,0,0,0,0,0,0,0,0,0,0,0,0,0,0,0,0,0,0,0,0,0,0,0,0,0,0,0,0,0,0,0,0,0,0,0.5884,0.5885,0,0.601,0.6011,0.6013,0.6053,0.6053,0.6052,0.6052,0.6178,0.6182,0.6186,0,0,0,0,0,0,0,0,0,0,0,0,0,0.5674,0.5678,0.5884,0.5885,0.5887,0.601,0.6011,0.6013,0.6053,0.6053,0.6052,0.6051,0.6177,0.6182,0.6186,0,0,0,0,0,0,0,0,0,0,0,0,0,0.5779,0.5679,0.5883,0.5922,0.5926,0.6009,0.6012,0.6014,0.6054,0.6053,0.6052,0.6051,0.6175,0.6181,0.6187,0.624,0,0,0.6205,0.6207,0,0,0,0,0,0,0,0,0.5773,0.5787,0.5914,0.5919,0.5925,0.6015,0.5984,0.6089,0.6054,0.6005,0.6052,0.6051,0.6124,0.6134,0.616,0.6246,0.6251,0.6205,0.6209,0.6211,0.6213,0,0,0,0,0,0,0,0.5766,0.5782,0.5933,0.5916,0.5923,0.5932,0.5946,0.6004,0.6068,0.6009,0.6013,0.6027,0.6127,0.6154,0.6163,0.6253,0.6205,0.621,0.6214,0.6216,0.6388,0.6389,0,0,0,0,0,0,0.5753,0.5775,0.5929,0.5937,0.5845,0.5936,0.5952,0.5987,0.6067,0.6079,0.6028,0.6029,0.6145,0.6156,0.6168,0.6235,0.6211,0.6217,0.622,0.6387,0.6388,0.639,0,0,0,0,0,0,0.5748,0.5766,0.5924,0.5857,0.5878,0.5941,0.598,0.599,0.6017,0.6081,0.6093,0.6044,0.6144,0.616,0.6222,0.624,0.6219,0.6225,0.6386,0.6387,0.6389,0.637,0,0,0,0,0,0,0.5742,0.5764,0.5786,0.5858,0.5882,0.5977,0.5981,0.5993,0.6027,0.603,0.61,0.611,0.6145,0.6213,0.6228,0.6248,0.6229,0.6384,0.6387,0.6388,0.6369,0.6371,0.6372,0,0,0,0,0,0.5734,0.5775,0.5787,0.5805,0.591,0.5978,0.5992,0.6032,0.6029,0.605,0.6092,0.6108,0.6235,0.6219,0.6236,0.6258,0.6384,0.6386,0.6388,0.6368,0.637,0.6372,0,0,0,0,0,0,0.5703,0.5785,0.5799,0.5864,0.5914,0.5985,0.6014,0.6032,0.6083,0.6083,0.6129,0.6145,0.6203,0.6237,0.6217,0.6313,0.631,0.6316,0.6289,0.6291,0.6293,0.6283,0.6234,0,0,0,0,0,0.5703,0.5753,0.5822,0.5872,0.5897,0.5951,0.5982,0.6008,0.6061,0.6082,0.6128,0.6178,0.6229,0.6262,0.6313,0.6374,0.6389,0.6397,0.6399,0.6399,0.6404,0.6438,0.6442,0.6397,0.6397,0.6397,0,0,0.5705,0.5756,0.5785,0.5867,0.5909,0.5958,0.5968,0.602,0.6057,0.609,0.6152,0.6187,0.6246,0.6307,0.6337,0.6337,0.642,0.6403,0.6403,0.6407,0.6441,0.6445,0.6449,0.6399,0.6399,0.6398,0,0,0.5734,0.5778,0.5825,0.5866,0.593,0.5965,0.5976,0.6044,0.6069,0.6132,0.6158,0.6202,0.6289,0.633,0.6362,0.6405,0.6422,0.642,0.6428,0.646,0.6464,0.6467,0.6482,0.6487,0.6425,0.6425,0.6425,0,0.5728,0.5804,0.5846,0.5897,0.5932,0.5965,0.6013,0.605,0.6126,0.615,0.6149,0.6259,0.6301,0.6373,0.6383,0.6408,0.6422,0.6413,0.646,0.6464,0.6468,0.6482,0.6488,0.6424,0.6424,0.6424,0.6424,0,0.5794,0.5846,0.5876,0.595,0.5988,0.6037,0.6085,0.6119,0.6142,0.6177,0.624,0.6291,0.6353,0.6372,0.6394,0.6446,0.6444,0.6451,0.6449,0.6471,0.6485,0.6491,0.6423,0.6423,0.6424,0.6424,0,0,0.5807,0.5903,0.5913,0.5946,0.6018,0.6059,0.6108,0.6169,0.6197,0.6248,0.629,0.6363,0.637,0.6407,0.6434,0.6462,0.6493,0.6466,0.6468,0.6469,0.6553,0.6547,0.6553,0.6504,0.6506,0.6507,0.6548,0,0.5845,0.5936,0.5975,0.6047,0.6096,0.6127,0.617,0.6218,0.6252,0.6297,0.6334,0.6385,0.6391,0.6413,0.6442,0.6483,0.651,0.648,0.6543,0.6545,0.6528,0.6561,0.6555,0.6592,0.6554,0.6555,0.6556,0,0.5902,0.5953,0.6031,0.6096,0.6118,0.6156,0.6215,0.6258,0.6312,0.6335,0.6375,0.6401,0.6453,0.6447,0.6519,0.6498,0.6526,0.6549,0.6552,0.6559,0.6552,0.6569,0.6605,0.661,0.6565,0.6564,0.6564,0,0.5903,0.5992,0.605,0.6078,0.6155,0.6181,0.6215,0.6269,0.6303,0.6353,0.6376,0.6431,0.6462,0.6504,0.6544,0.6536,0.6612,0.6609,0.6631,0.663,0.6646,0.6645,0.6686,0.6664,0.6664,0.6664,0.6664,0,0.5942,0.5988,0.6052,0.6087,0.614,0.6183,0.6234,0.6269,0.6317,0.6359,0.6389,0.6428,0.6478,0.6523,0.6554,0.6608,0.6622,0.6641,0.6649,0.6639,0.6636,0.6658,0.6656,0.6665,0.6665,0.6665,0.6664,0,0.5952,0.5997,0.6063,0.6131,0.6149,0.6184,0.6242,0.6277,0.6312,0.6365,0.638,0.6435,0.6489,0.6533,0.6604,0.6625,0.6682,0.6691,0.6664,0.6668,0.6687,0.6685,0.6745,0.6754,0.6725,0.6725,0.6725,0,0.5974,0.6011,0.6082,0.6113,0.6146,0.6196,0.623,0.6274,0.6309,0.6374,0.6401,0.6457,0.6505,0.659,0.6636,0.669,0.67,0.6717,0.6708,0.6697,0.67,0.6698,0.6701,0.6718,0.6718,0.6718,0.6718,0,0.6008,0.6028,0.6077,0.6134,0.6175,0.6222,0.627,0.6293,0.6345,0.6382,0.6439,0.6476,0.6548,0.6604,0.6663,0.6696,0.6716,0.6721,0.6729,0.6719,0.6702,0.6711,0.6666,0.6719,0.6719,0.6719,0.6719,0.6719,0.6025,0.6058,0.6114,0.6168,0.6208,0.6252,0.6288,0.6328,0.6376,0.6438,0.6461,0.6519,0.6571,0.6653,0.6686,0.6731,0.6733,0.6744,0.6747,0.675,0.6748,0.6694,0.6742,0.6742,0.6742,0.6742,0.6742,0,0.606,0.6097,0.6146,0.6212,0.6254,0.6269,0.6322,0.6356,0.6407,0.6455,0.6501,0.6565,0.6619,0.6669,0.6725,0.6751,0.6761,0.6764,0.6763,0.677,0.6744,0.6731,0.6755,0.6755,0.6755,0.6755,0.6755,0.6755,0.6083,0.6141,0.6167,0.6245,0.6281,0.6339,0.6367,0.6407,0.6446,0.6516,0.6561,0.6594,0.6642,0.6702,0.6751,0.6765,0.6784,0.6784,0.6799,0.6774,0.6772,0.677,0.6759,0.6788,0.6788,0.6822,0.6823,0.6823]}]]